DW7027 Weather Reports


Display with metric or nautical units.
time (UTC)temp
F
wind
direction
speed
MPH
gust
MPH
rain 1hr
in
rain 24hr
in
rain mn
in
humidity
%
barometer
mb
20260904164705 87 238 7.0 13.0 0.00 0.00 0.00 38 1015.8
20260904163204 87 259 6.0 10.0 0.00 0.00 0.00 38 1016.0
20260904162704 87 243 5.0 14.0 0.00 0.00 0.00 38 1016.2
20260904162205 87 238 10.0 16.0 0.00 0.00 0.00 37 1016.1
20260904160704 88 244 6.0 16.0 0.00 0.00 0.00 37 1016.4
20260904160206 88 263 9.0 16.0 0.00 0.00 0.00 37 1016.2
20260904155705 88 241 6.0 15.0 0.00 0.00 0.00 37 1016.3
20260904155204 88 226 7.0 16.0 0.00 0.00 0.00 37 1016.4
20260904154706 89 234 8.0 15.0 0.00 0.00 0.00 37 1016.4
20260904154204 89 241 8.0 16.0 0.00 0.00 0.00 36 1016.6
20260904153205 90 254 7.0 13.0 0.00 0.00 0.00 36 1016.5
20260904152205 90 276 9.0 14.0 0.00 0.00 0.00 36 1016.7
20260904151705 90 243 9.0 15.0 0.00 0.00 0.00 35 1016.8
20260904151205 90 264 9.0 16.0 0.00 0.00 0.00 35 1016.9
20260904150205 90 277 8.0 16.0 0.00 0.00 0.00 36 1017.0
20260904145705 90 245 7.0 16.0 0.00 0.00 0.00 36 1017.0
20260904145205 90 288 9.0 17.0 0.00 0.00 0.00 36 1017.0
20260904144704 90 275 12.0 17.0 0.00 0.00 0.00 36 1017.1
20260904144207 90 254 6.0 13.0 0.00 0.00 0.00 37 1017.2
20260904143205 90 236 10.0 16.0 0.00 0.00 0.00 37 1017.6
20260904142706 90 259 7.0 14.0 0.00 0.00 0.00 36 1017.6
20260904142205 90 281 9.0 18.0 0.00 0.00 0.00 37 1017.6
20260904141705 90 268 8.0 16.0 0.00 0.00 0.00 36 1017.7
20260904141207 90 237 6.0 12.0 0.00 0.00 0.00 37 1017.8
20260904140706 90 268 4.0 17.0 0.00 0.00 0.00 37 1017.8
20260904140205 90 272 10.0 18.0 0.00 0.00 0.00 36 1017.9
20260904135707 90 236 7.0 13.0 0.00 0.00 0.00 37 1018.0
20260904134705 90 271 9.0 16.0 0.00 0.00 0.00 37 1018.2
20260904134205 89 286 8.0 14.0 0.00 0.00 0.00 38 1018.3
20260904133704 89 255 8.0 17.0 0.00 0.00 0.00 37 1018.1
20260904133205 90 239 8.0 21.0 0.00 0.00 0.00 36 1018.3
20260904132705 90 287 11.0 22.0 0.00 0.00 0.00 38 1018.1
20260904132205 89 280 9.0 17.0 0.00 0.00 0.00 37 1018.3
20260904131205 89 239 10.0 14.0 0.00 0.00 0.00 37 1018.5
20260904130205 89 252 8.0 15.0 0.00 0.00 0.00 39 1018.4
20260904125704 89 273 8.0 15.0 0.00 0.00 0.00 39 1018.7
20260904125205 89 282 8.0 14.0 0.00 0.00 0.00 38 1018.6
20260904124705 89 287 7.0 17.0 0.00 0.00 0.00 39 1018.7
20260904124204 89 265 9.0 15.0 0.00 0.00 0.00 38 1018.7
20260904123706 89 283 7.0 13.0 0.00 0.00 0.00 39 1018.8
20260904121205 88 244 6.0 13.0 0.00 0.00 0.00 39 1019.2
20260904120705 88 276 8.0 16.0 0.00 0.00 0.00 39 1019.4
20260904120204 87 294 10.0 17.0 0.00 0.00 0.00 41 1019.3
20260904115705 86 289 6.0 12.0 0.00 0.00 0.00 43 1019.7
20260904114205 86 240 7.0 14.0 0.00 0.00 0.00 43 1019.8
20260904113704 86 247 6.0 13.0 0.00 0.00 0.00 44 1020.0
20260904113206 86 286 7.0 16.0 0.00 0.00 0.00 43 1019.9
20260904112705 86 241 8.0 17.0 0.00 0.00 0.00 44 1020.0
20260904111705 85 237 6.0 14.0 0.00 0.00 0.00 43 1020.1
20260904111205 84 257 3.0 12.0 0.00 0.00 0.00 46 1020.4
20260904110707 83 241 7.0 13.0 0.00 0.00 0.00 46 1020.4
20260904105705 83 241 5.0 13.0 0.00 0.00 0.00 46 1020.6
20260904105205 83 248 7.0 17.0 0.00 0.00 0.00 45 1020.6
20260904104705 83 282 10.0 17.0 0.00 0.00 0.00 45 1020.6
20260904104205 83 272 9.0 20.0 0.00 0.00 0.00 47 1020.8
20260904103705 83 282 9.0 17.0 0.00 0.00 0.00 48 1020.7
20260904102707 82 276 7.0 12.0 0.00 0.00 0.00 49 1021.2
20260904102204 82 275 7.0 12.0 0.00 0.00 0.00 48 1021.1
20260904100706 82 279 8.0 13.0 0.00 0.00 0.00 49 1021.5
20260904100207 82 282 8.0 16.0 0.00 0.00 0.00 49 1021.6
20260904094705 82 280 7.0 16.0 0.00 0.00 0.00 48 1021.7
20260904093705 82 265 9.0 16.0 0.00 0.00 0.00 49 1021.8
20260904093205 82 285 7.0 14.0 0.00 0.00 0.00 50 1022.0
20260904091205 81 297 9.0 15.0 0.00 0.00 0.00 51 1022.4
20260904090205 81 280 7.0 12.0 0.00 0.00 0.00 50 1022.5
20260904085205 81 277 7.0 15.0 0.00 0.00 0.00 51 1022.4
20260904084706 81 269 9.0 17.0 0.00 0.00 0.00 51 1022.8
20260904083707 80 280 5.0 14.0 0.00 0.00 0.00 52 1022.6
20260904082705 79 260 6.0 14.0 0.00 0.00 0.00 53 1022.8
20260904081205 78 265 3.0 10.0 0.00 0.00 0.00 55 1022.8
20260904080704 78 288 6.0 13.0 0.00 0.00 0.00 55 1022.9
20260904080205 77 242 6.0 10.0 0.00 0.00 0.00 55 1023.0
20260904075705 76 288 4.0 12.0 0.00 0.00 0.00 57 1023.1
20260904073705 75 281 5.0 12.0 0.00 0.00 0.00 59 1023.1
20260904072704 74 249 3.0 6.0 0.00 0.00 0.00 61 1023.0
20260904072205 73 222 3.0 5.0 0.00 0.00 0.00 62 1023.1
20260904071705 73 254 5.0 9.0 0.00 0.00 0.00 62 1023.2
20260904071205 73 259 3.0 5.0 0.00 0.00 0.00 63 1023.2
20260904070705 72 216 3.0 6.0 0.00 0.00 0.00 65 1023.0
20260904070205 71 261 2.0 3.0 0.00 0.00 0.00 67 1023.1
20260904065707 70 286 2.0 3.0 0.00 0.00 0.00 68 1023.0
20260904065205 70 243 2.0 3.0 0.00 0.00 0.00 69 1023.1
20260904064705 70 192 1.0 2.0 0.00 0.00 0.00 70 1023.1
20260904064205 69 355 0.0 2.0 0.00 0.00 0.00 71 1023.1
20260904063706 69 113 1.0 2.0 0.00 0.00 0.00 71 1023.0
20260904063205 68 225 0.0 2.0 0.00 0.00 0.00 72 1023.1
20260904062205 67 293 1.0 2.0 0.00 0.00 0.00 74 1023.4
20260904061705 66 272 1.0 2.0 0.00 0.00 0.00 74 1023.4
20260904061205 66 280 0.0 0.0 0.00 0.00 0.00 74 1023.3
20260904055705 65 223 1.0 2.0 0.00 0.00 0.00 75 1023.3
20260904055205 65 254 1.0 2.0 0.00 0.00 0.00 76 1023.3
20260904054705 65 269 0.0 1.0 0.00 0.00 0.00 76 1023.2
20260904054206 65 345 0.0 1.0 0.00 0.00 0.00 76 1023.2
20260904053704 65 337 0.0 2.0 0.00 0.00 0.00 76 1023.3
20260904053205 64 30 1.0 2.0 0.00 0.00 0.00 76 1023.2
20260904052705 64 250 0.0 1.0 0.00 0.00 0.00 76 1023.1
20260904052205 64 356 0.0 2.0 0.00 0.00 0.00 76 1023.3
20260904051205 64 34 1.0 2.0 0.00 0.00 0.00 75 1023.2
20260904050705 64 115 0.0 1.0 0.00 0.00 0.00 75 1022.9
20260904050206 64 26 0.0 2.0 0.00 0.00 0.00 74 1023.0
20260904045205 64 43 1.0 2.0 0.00 0.00 0.00 73 1022.7
20260904044205 64 236 2.0 3.0 0.00 0.00 0.00 73 1022.8
20260904043705 64 232 1.0 3.0 0.00 0.00 0.00 73 1022.9
20260904043205 64 249 1.0 3.0 0.00 0.00 0.00 73 1023.0
20260904042707 64 281 1.0 2.0 0.00 0.00 0.00 72 1023.1
20260904041705 64 265 0.0 2.0 0.00 0.00 0.00 72 1023.3
20260904040706 65 181 1.0 3.0 0.00 0.00 0.00 72 1022.9
20260904040205 65 116 1.0 2.0 0.00 0.00 0.00 73 1022.8
20260904035705 64 188 0.0 2.0 0.00 0.00 0.00 73 1023.2
20260904034204 64 221 1.0 3.0 0.00 0.00 0.00 73 1023.1
20260904033205 64 214 1.0 2.0 0.00 0.00 0.00 72 1022.9
20260904032705 64 206 2.0 5.0 0.00 0.00 0.00 72 1022.8
20260904032205 64 218 2.0 3.0 0.00 0.00 0.00 72 1022.8
20260904031205 64 174 0.0 2.0 0.00 0.00 0.00 72 1023.0
20260904030705 64 110 1.0 1.0 0.00 0.00 0.00 72 1023.1
20260904030205 64 135 0.0 2.0 0.00 0.00 0.00 72 1023.2
20260904025708 64 218 1.0 5.0 0.00 0.00 0.00 72 1022.9
20260904025206 64 197 2.0 5.0 0.00 0.00 0.00 72 1022.8
20260904024705 64 196 2.0 3.0 0.00 0.00 0.00 72 1022.8
20260904024205 63 199 1.0 3.0 0.00 0.00 0.00 72 1022.9
20260904023705 63 199 1.0 3.0 0.00 0.00 0.00 72 1022.9
20260904023205 63 208 1.0 2.0 0.00 0.00 0.00 71 1022.8
20260904022705 63 249 1.0 3.0 0.00 0.00 0.00 71 1023.0
20260904020705 64 90 1.0 2.0 0.00 0.00 0.00 70 1022.8
20260904020205 64 125 0.0 2.0 0.00 0.00 0.00 70 1022.8
20260904015705 64 113 1.0 3.0 0.00 0.00 0.00 70 1022.8
20260904015205 64 173 2.0 5.0 0.00 0.00 0.00 69 1022.7
20260904014707 64 178 2.0 5.0 0.00 0.00 0.00 69 1022.7
20260904014205 64 198 2.0 5.0 0.00 0.00 0.00 69 1022.9
20260904013705 65 147 0.0 2.0 0.00 0.00 0.00 68 1022.9
20260904012707 65 67 0.0 2.0 0.00 0.00 0.00 68 1022.9
20260904012205 65 167 1.0 3.0 0.00 0.00 0.00 68 1023.1
20260904011705 65 207 1.0 3.0 0.00 0.00 0.00 68 1023.1
20260904010705 65 204 1.0 2.0 0.00 0.00 0.00 67 1023.1
20260904010207 65 238 2.0 2.0 0.00 0.00 0.00 67 1023.2
20260904005207 66 310 0.0 2.0 0.00 0.00 0.00 66 1023.4
20260904003705 66 282 1.0 2.0 0.00 0.00 0.00 66 1023.5
20260904002705 66 279 1.0 2.0 0.00 0.00 0.00 66 1023.3
20260904002204 66 246 2.0 5.0 0.00 0.00 0.00 66 1023.5
20260904001205 66 243 3.0 5.0 0.00 0.00 0.00 67 1023.4
20260904000705 66 257 2.0 5.0 0.00 0.00 0.00 67 1023.6
20260904000205 65 268 2.0 6.0 0.00 0.00 0.00 68 1023.6
20260903235705 65 273 3.0 7.0 0.00 0.00 0.00 68 1023.5
20260903235207 64 279 4.0 6.0 0.00 0.00 0.00 69 1023.6
20260903234706 64 274 3.0 6.0 0.00 0.00 0.00 69 1023.7
20260903234205 64 275 3.0 5.0 0.00 0.00 0.00 69 1023.7
20260903233706 63 276 2.0 5.0 0.00 0.00 0.00 69 1023.8
20260903233205 63 272 2.0 3.0 0.00 0.00 0.00 69 1023.8
20260903231205 64 280 1.0 3.0 0.00 0.00 0.00 67 1023.7
20260903230704 64 292 2.0 3.0 0.00 0.00 0.00 66 1023.7
20260903230205 64 327 1.0 3.0 0.00 0.00 0.00 66 1023.7
20260903225705 64 329 1.0 2.0 0.00 0.00 0.00 66 1023.5
20260903225204 65 317 1.0 2.0 0.00 0.00 0.00 65 1023.6
20260903224704 65 312 0.0 2.0 0.00 0.00 0.00 65 1023.8
20260903224207 65 314 0.0 3.0 0.00 0.00 0.00 64 1023.6
20260903223205 65 314 2.0 5.0 0.00 0.00 0.00 64 1023.7
20260903222706 65 283 1.0 3.0 0.00 0.00 0.00 64 1023.9
20260903222206 65 288 2.0 6.0 0.00 0.00 0.00 64 1023.9
20260903220705 65 276 4.0 6.0 0.00 0.00 0.00 63 1023.7
20260903220205 65 279 3.0 6.0 0.00 0.00 0.00 63 1023.7
20260903215705 65 285 3.0 6.0 0.00 0.00 0.00 63 1023.7
20260903214204 65 289 3.0 7.0 0.00 0.00 0.00 64 1024.1
20260903213705 65 282 5.0 7.0 0.00 0.00 0.00 63 1023.9
20260903213205 65 287 3.0 6.0 0.00 0.00 0.00 63 1023.8
20260903212206 65 264 2.0 3.0 0.00 0.00 0.00 63 1023.6
20260903211205 65 296 2.0 3.0 0.00 0.00 0.00 63 1023.9
20260903210705 65 275 2.0 3.0 0.00 0.00 0.00 62 1023.8
20260903205704 65 282 2.0 5.0 0.00 0.00 0.00 62 1023.7
20260903205205 65 274 3.0 5.0 0.00 0.00 0.00 62 1023.7
20260903204705 65 276 3.0 5.0 0.00 0.00 0.00 63 1023.7
20260903203705 65 331 0.0 2.0 0.00 0.00 0.00 62 1023.7
20260903203205 65 317 1.0 2.0 0.00 0.00 0.00 62 1023.6
20260903202706 65 323 0.0 1.0 0.00 0.00 0.00 61 1023.5
20260903202205 65 312 1.0 2.0 0.00 0.00 0.00 60 1023.6
20260903201706 65 299 1.0 2.0 0.00 0.00 0.00 59 1023.6
20260903201205 66 308 1.0 2.0 0.00 0.00 0.00 57 1023.5
20260903200705 66 283 2.0 3.0 0.00 0.00 0.00 57 1023.4
20260903200205 66 281 2.0 3.0 0.00 0.00 0.00 57 1023.3
20260903195705 66 277 2.0 3.0 0.00 0.00 0.00 56 1023.5
20260903194706 66 262 2.0 2.0 0.00 0.00 0.00 56 1023.3
20260903193705 67 277 2.0 2.0 0.00 0.00 0.00 56 1023.4
20260903192205 67 279 1.0 2.0 0.00 0.00 0.00 55 1023.2
20260903191706 68 277 1.0 2.0 0.00 0.00 0.00 55 1023.0
20260903191205 68 271 1.0 2.0 0.00 0.00 0.00 55 1023.1
20260903190707 68 285 1.0 2.0 0.00 0.00 0.00 55 1023.1
20260903185705 68 269 1.0 2.0 0.00 0.00 0.00 54 1023.3
20260903184705 69 285 1.0 2.0 0.00 0.00 0.00 55 1023.3
20260903184205 69 267 0.0 2.0 0.00 0.00 0.00 55 1023.2
20260903183707 69 275 1.0 2.0 0.00 0.00 0.00 54 1023.1
20260903183205 69 277 1.0 2.0 0.00 0.00 0.00 53 1023.0
20260903182705 69 270 1.0 2.0 0.00 0.00 0.00 53 1023.2
20260903182206 70 273 2.0 3.0 0.00 0.00 0.00 53 1022.9
20260903181205 70 274 2.0 2.0 0.00 0.00 0.00 53 1022.8
20260903180704 71 266 1.0 2.0 0.00 0.00 0.00 55 1022.8
20260903180205 71 278 1.0 2.0 0.00 0.00 0.00 55 1022.7
20260903175705 71 287 1.0 2.0 0.00 0.00 0.00 55 1022.5
20260903175205 71 290 0.0 1.0 0.00 0.00 0.00 54 1022.5
20260903174706 72 331 1.0 1.0 0.00 0.00 0.00 53 1022.5
20260903174205 72 290 1.0 1.0 0.00 0.00 0.00 52 1022.8
20260903173705 72 309 0.0 2.0 0.00 0.00 0.00 52 1022.4
20260903172705 73 292 1.0 2.0 0.00 0.00 0.00 50 1022.5
20260903172205 73 309 1.0 1.0 0.00 0.00 0.00 49 1022.3
20260903171705 73 279 0.0 1.0 0.00 0.00 0.00 49 1022.4
20260903170705 74 308 0.0 1.0 0.00 0.00 0.00 47 1022.5
20260903165706 74 319 0.0 1.0 0.00 0.00 0.00 45 1022.2
20260903165204 75 324 1.0 2.0 0.00 0.00 0.00 45 1022.5